Tracking 19832 objects as of 25-Aug-2019
HD Live streaming from Space Station
objects crossing your sky now

SL-16 DEB

Track SL-16 DEB now!
10-day predictions


NORAD ID: 42250
Int'l Code: 1993-016DE
Perigee: 817.2 km
Apogee: 839.7 km
Inclination: 71.0 °
Period: 101.3 minutes
Semi major axis: 7199 km
RCS: Unknown
Launch date: March 26, 1993
Source: Commonwealth of Independent States (former USSR) (CIS)
Launch site: PLESETSK MISSILE AND SPACE COMPLEX (PKMTR)

Note: This is SATELLITE DEBRIS
aabbcc
Your satellite tracking list
Your tracking list is empty




NASA's NSSDC Master Catalog

Two Line Element Set (TLE):
1 42250U 93016DE  19236.71150142 +.00001656 +00000-0 +78191-3 0  9991
2 42250 070.9970 254.3756 0015575 313.4016 046.5812 14.21193144196192
Source of the keplerian elements: AFSPC